DW5856 Weather Reports


Display with metric or nautical units.
time (UTC)temp
F
wind
direction
speed
MPH
gust
MPH
rain 1hr
in
rain 24hr
in
rain mn
in
humidity
%
barometer
mb
20220814090006 61 309 1.0 5.0 0.00 0.01 0.00 79 1006.3
20220814084603 63 34 2.0 3.0 0.00 0.01 0.00 76 1006.3
20220814083145 63 36 1.0 0.0 0.00 0.00 0.00 75 1006.4
20220814081606 64 35 0.0 2.0 0.00 0.01 0.00 73 1006.3
20220814080047 66 34 1.0 2.0 0.00 0.01 0.00 72 1006.4
20220814074548 67 38 2.0 6.0 0.00 0.01 0.00 70 1006.4
20220814073048 68 360 6.0 9.0 0.00 0.01 0.00 65 1006.6
20220814071550 69 315 2.0 6.0 0.00 0.01 0.00 59 1006.3
20220814070037 69 153 1.0 2.0 0.00 0.01 0.00 60 1006.3
20220814064538 70 153 0.0 2.0 0.00 0.01 0.00 59 1006.4
20220814063041 71 144 2.0 5.0 0.00 0.01 0.00 56 1006.4
20220814061529 71 360 6.0 8.0 0.00 0.01 0.00 54 1006.3
20220814060026 69 360 6.0 8.0 0.00 0.01 0.00 59 1006.4
20220814054526 68 360 3.0 5.0 0.00 0.01 0.01 61 1006.5
20220814053024 69 360 3.0 5.0 0.00 0.01 0.01 60 1006.6
20220814051531 70 360 2.0 7.0 0.00 0.01 0.01 59 1006.7
20220814050046 70 360 6.0 9.0 0.00 0.01 0.01 59 1006.7
20220814044554 69 360 6.0 10.0 0.00 0.01 0.01 62 1007.0
20220814043022 68 360 2.0 8.0 0.00 0.01 0.01 68 1007.5
20220814041543 68 360 2.0 6.0 0.00 0.01 0.01 70 1007.8
20220814040028 69 360 1.0 3.0 0.00 0.01 0.01 68 1007.8
20220814034520 71 360 0.0 4.0 0.00 0.01 0.01 60 1008.0
20220814033028 71 360 4.0 10.0 0.00 0.01 0.01 60 1007.7
20220814031523 71 360 9.0 17.0 0.00 0.01 0.01 59 1007.1
20220814030029 71 360 12.0 17.0 0.00 0.01 0.01 59 1006.5
20220814024539 71 360 16.0 20.0 0.00 0.01 0.01 58 1006.2
20220814023038 70 360 13.0 20.0 0.01 0.01 0.01 59 1006.2
20220814021515 69 360 12.0 18.0 0.01 0.01 0.01 68 1006.2
20220814020043 69 26 3.0 5.0 0.01 0.01 0.01 70 1006.3
20220814014514 70 360 5.0 10.0 0.01 0.01 0.01 64 1006.8
20220814013039 72 360 9.0 15.0 0.00 0.00 0.00 58 1007.0
20220814011552 75 360 11.0 22.0 0.00 0.00 0.00 50 1006.8
20220814010028 77 360 12.0 22.0 0.00 0.00 0.00 45 1006.1
20220814004533 81 271 11.0 20.0 0.00 0.00 0.00 41 1005.9
20220814003013 83 360 16.0 22.0 0.00 0.00 0.00 38 1005.5
20220814001510 84 360 6.0 10.0 0.00 0.00 0.00 39 1005.1
20220814000015 85 237 4.0 6.0 0.00 0.00 0.00 38 1005.1
20220813234512 85 150 1.0 5.0 0.00 0.00 0.00 39 1005.0
20220813233011 85 134 3.0 7.0 0.00 0.00 0.00 38 1004.9
20220813231506 87 360 0.0 9.0 0.00 0.00 0.00 37 1004.7
20220813230012 88 360 3.0 9.0 0.00 0.00 0.00 36 1004.7
20220813224502 87 148 1.0 11.0 0.00 0.00 0.00 37 1004.7
20220813223005 87 134 2.0 5.0 0.00 0.00 0.00 36 1004.6
20220813221607 88 147 1.0 8.0 0.00 0.00 0.00 35 1004.8
20220813220209 89 125 2.0 7.0 0.00 0.00 0.00 35 1005.0
20220813214556 91 225 1.0 9.0 0.00 0.00 0.00 34 1005.3
20220813213105 91 360 2.0 8.0 0.00 0.00 0.00 34 1005.6
20220813211600 89 360 4.0 10.0 0.00 0.00 0.00 37 1005.7
20220813210045 87 360 4.0 10.0 0.00 0.00 0.00 39 1005.9
20220813204626 87 69 3.0 13.0 0.00 0.00 0.00 38 1006.0
20220813203052 86 120 5.0 12.0 0.00 0.00 0.00 39 1006.3
20220813201608 86 164 6.0 12.0 0.00 0.00 0.00 39 1006.3
20220813200039 86 360 2.0 8.0 0.00 0.00 0.00 41 1006.6
20220813194608 84 109 6.0 10.0 0.00 0.00 0.00 42 1006.9
20220813193045 84 360 5.0 10.0 0.00 0.00 0.00 43 1007.0
20220813191540 83 136 0.0 10.0 0.00 0.00 0.00 43 1007.2
20220813190035 83 136 1.0 7.0 0.00 0.00 0.00 43 1007.5
20220813184539 83 135 4.0 8.0 0.00 0.00 0.00 45 1007.7
20220813183032 81 130 3.0 7.0 0.00 0.00 0.00 48 1007.8
20220813181528 81 126 3.0 5.0 0.00 0.00 0.00 46 1007.9
20220813180031 80 119 2.0 7.0 0.00 0.00 0.00 47 1008.2
20220813174526 81 136 3.0 7.0 0.00 0.00 0.00 46 1008.5
20220813173044 78 128 4.0 8.0 0.00 0.00 0.00 51 1008.8
20220813171541 78 360 3.0 9.0 0.00 0.00 0.00 50 1008.7
20220813170023 78 141 2.0 10.0 0.00 0.00 0.00 51 1008.9
20220813164527 78 127 5.0 10.0 0.00 0.00 0.00 50 1009.0
20220813163021 79 360 3.0 9.0 0.00 0.00 0.00 48 1008.9
20220813161544 78 171 1.0 8.0 0.00 0.00 0.00 49 1009.1
20220813160046 77 128 4.0 7.0 0.00 0.00 0.00 51 1009.2
20220813154527 77 360 1.0 6.0 0.00 0.00 0.00 50 1009.4
20220813153020 77 360 5.0 8.0 0.00 0.00 0.00 49 1009.5
20220813151516 76 360 3.0 8.0 0.00 0.00 0.00 53 1009.6
20220813150015 77 360 4.0 9.0 0.00 0.00 0.00 51 1009.6
20220813144523 77 360 2.0 7.0 0.00 0.00 0.00 51 1009.8
20220813143022 76 167 4.0 7.0 0.00 0.00 0.00 53 1009.9
20220813141524 76 360 1.0 5.0 0.00 0.00 0.00 55 1010.0
20220813140009 75 360 3.0 6.0 0.00 0.00 0.00 55 1010.1
20220813134516 75 360 3.0 6.0 0.00 0.00 0.00 55 1010.1
20220813133029 72 360 0.0 4.0 0.00 0.00 0.00 60 1010.2
20220813131506 69 360 0.0 4.0 0.00 0.00 0.00 65 1010.5
20220813130014 65 360 2.0 5.0 0.00 0.00 0.00 71 1010.4
20220813124503 63 360 2.0 5.0 0.00 0.00 0.00 73 1010.3
20220813123001 62 9 1.0 2.0 0.00 0.00 0.00 73 1010.3
20220813121608 63 360 1.0 2.0 0.00 0.00 0.00 71 1010.4
20220813120056 63 360 2.0 3.0 0.00 0.00 0.00 71 1010.3
20220813114552 64 360 2.0 5.0 0.00 0.00 0.00 70 1010.3
20220813113047 65 360 2.0 5.0 0.00 0.00 0.00 68 1010.2
20220813111543 66 360 4.0 8.0 0.00 0.00 0.00 66 1010.1
20220813110046 67 360 7.0 10.0 0.00 0.00 0.00 66 1010.0
20220813104556 67 360 7.0 12.0 0.00 0.00 0.00 65 1009.9
20220813103037 68 360 10.0 14.0 0.00 0.00 0.00 64 1009.6
20220813101546 68 360 12.0 19.0 0.00 0.00 0.00 63 1009.4
20220813100029 68 360 13.0 18.0 0.00 0.00 0.00 63 1009.5
20220813094538 69 360 16.0 23.0 0.00 0.00 0.00 62 1009.4
20220813093025 69 36 16.0 26.0 0.00 0.00 0.00 62 1009.2
20220813091522 69 360 15.0 25.0 0.00 0.00 0.00 62 1009.1